Weather History for Perry, IA

Change the Weather History Date:

Tuesday, May 28, 2013

  Actual Average Record
Temperature  
Mean Temperature 70 °F -  
Max Temperature 79 °F 76 °F 92 °F (1988)
Min Temperature 60 °F 54 °F 38 °F (1965)
Cooling Degree Days 4    
Growing Degree Days 20 (Base 50)    
Moisture  
Dew Point 61 °F    
Average Humidity 76    
Maximum Humidity 93    
Minimum Humidity 51    
Precipitation  
Precipitation 0.17 in - - ()
Sea Level Pressure  
Sea Level Pressure 29.70 in    
Wind  
Wind Speed 8 mph (South)    
Max Wind Speed 22 mph    
Max Gust Speed 16 mph    
Visibility 10 miles    
Events Rain    
Averages and records for this station are not official NWS values.
T = Trace of Precipitation, MM = Missing Value Source: NWS Daily Summary

Daily Weather History Graph

Daily Weather History Graph

Search for Another Location

Airport:

Trip Planner

Search our weather history database for the weather conditions in past years. The results will help you decide how hot, cold, wet, or windy it might be!

Date:

Astronomy

May. 28, 2013 Rise Set
Actual Time 5:46 AM CDT 8:42 PM CDT
Civil Twilight 5:12 AM CDT 9:15 PM CDT
Nautical Twilight 4:30 AM CDT 9:57 PM CDT
Astronomical Twilight 3:42 AM CDT 10:46 PM CDT
Moon No Moon Rise 9:36 AM CDT (5/28)
Length of Visible Light 16h 02m
Length of Day
14h 56m
Waning Gibbous, 82% of the Moon is Illuminated
May 28
Waning Gibbous
May 31
Last Quarter
Jun 8
New
Jun 16
First Quarter
Jun 23
Full

Hourly Weather History & Observations

Time (CDT) Temp. Dew Point Humidity Pressure Visibility Wind Dir Wind Speed Gust Speed Precip Events Conditions
12:15 AM 66.9 °F 62.1 °F 84% 29.73 in 10.0 mi SSE 5.8 mph - N/A   Overcast
12:35 AM 66.6 °F 62.1 °F 85% 29.73 in 10.0 mi SE 6.9 mph - N/A Rain Light Rain
12:55 AM 66.4 °F 62.1 °F 86% 29.72 in 10.0 mi SSE 11.5 mph - 0.01 in Rain Light Rain
1:15 AM 66.0 °F 62.1 °F 87% 29.70 in 10.0 mi ESE 9.2 mph - 0.02 in Rain Light Rain
1:35 AM 65.7 °F 62.2 °F 89% 29.70 in 10.0 mi SSE 15.0 mph - 0.04 in Rain Rain
1:55 AM 66.2 °F 62.1 °F 86% 29.67 in 7.0 mi SSE 19.6 mph - 0.08 in Rain Rain
2:15 AM 65.3 °F 61.7 °F 88% 29.64 in 7.0 mi SSE 21.9 mph - 0.05 in Rain Light Rain
2:35 AM 64.4 °F 60.1 °F 86% 29.57 in 10.0 mi ESE 21.9 mph - 0.08 in Rain Light Rain
2:55 AM 64.9 °F 59.2 °F 82% 29.62 in 10.0 mi ESE 5.8 mph - 0.08 in   Mostly Cloudy
3:15 AM 64.4 °F 59.2 °F 83% 29.64 in 10.0 mi NNW 12.7 mph - N/A   Scattered Clouds
3:35 AM 63.9 °F 59.9 °F 87% 29.65 in 10.0 mi West 9.2 mph - N/A   Clear
3:55 AM 63.5 °F 59.4 °F 86% 29.66 in 10.0 mi NNW 6.9 mph - N/A   Clear
4:15 AM 63.5 °F 59.9 °F 88% 29.67 in 10.0 mi North 8.1 mph - N/A   Clear
4:35 AM 63.5 °F 60.1 °F 89% 29.68 in 10.0 mi NNE 4.6 mph - N/A   Scattered Clouds
4:55 AM 63.5 °F 60.3 °F 89% 29.68 in 10.0 mi NNE 5.8 mph - N/A   Scattered Clouds
5:15 AM 62.8 °F 59.9 °F 90% 29.68 in 10.0 mi East 3.5 mph - N/A   Scattered Clouds
5:35 AM 62.2 °F 59.4 °F 90% 29.68 in 10.0 mi Calm Calm - N/A   Clear
5:55 AM 60.8 °F 58.1 °F 91% 29.69 in 5.0 mi South 4.6 mph - N/A   Clear
6:15 AM 60.6 °F 58.1 °F 91% 29.68 in 5.0 mi South 6.9 mph - N/A   Clear
6:35 AM 61.2 °F 59.0 °F 93% 29.68 in 7.0 mi SSE 6.9 mph - N/A   Clear
6:55 AM 61.0 °F 58.6 °F 92% 29.67 in 5.0 mi SSE 5.8 mph - N/A   Mostly Cloudy
7:15 AM 62.4 °F 59.9 °F 91% 29.67 in 10.0 mi South 5.8 mph - N/A   Scattered Clouds
7:35 AM 63.5 °F 60.3 °F 89% 29.67 in 10.0 mi SSE 6.9 mph - N/A   Clear
7:55 AM 64.9 °F 61.0 °F 87% 29.66 in 10.0 mi SSE 8.1 mph - N/A   Clear
8:15 AM 66.2 °F 62.1 °F 86% 29.67 in 10.0 mi South 9.2 mph - N/A   Scattered Clouds
8:35 AM 66.2 °F 61.5 °F 85% 29.69 in 10.0 mi South 9.2 mph - N/A   Mostly Cloudy
8:55 AM 66.4 °F 61.5 °F 84% 29.69 in 10.0 mi South 8.1 mph - N/A   Overcast
9:15 AM 67.5 °F 61.9 °F 82% 29.69 in 10.0 mi SSW 9.2 mph - N/A   Overcast
9:35 AM 68.0 °F 61.7 °F 80% 29.69 in 10.0 mi SW 6.9 mph - N/A   Overcast
9:55 AM 66.7 °F 62.2 °F 85% 29.69 in 10.0 mi West 12.7 mph - N/A   Overcast
10:15 AM 67.6 °F 62.6 °F 84% 29.69 in 10.0 mi WNW 11.5 mph - N/A   Overcast
10:35 AM 68.2 °F 61.9 °F 80% 29.69 in 10.0 mi West 9.2 mph - N/A   Scattered Clouds
10:55 AM 69.8 °F 61.7 °F 75% 29.68 in 10.0 mi WSW 4.6 mph - N/A   Scattered Clouds
11:15 AM 69.6 °F 60.6 °F 73% 29.69 in 10.0 mi SSW 3.5 mph - N/A   Mostly Cloudy
11:35 AM 70.9 °F 61.3 °F 72% 29.70 in 10.0 mi West 8.1 mph - N/A   Overcast
11:55 AM 70.2 °F 61.9 °F 75% 29.70 in 10.0 mi WSW 8.1 mph - N/A   Overcast
12:15 PM 71.8 °F 61.5 °F 70% 29.71 in 10.0 mi WSW 5.8 mph - N/A   Overcast
12:35 PM 72.7 °F 62.2 °F 70% 29.71 in 10.0 mi West 9.2 mph - N/A   Mostly Cloudy
12:55 PM 72.7 °F 61.5 °F 68% 29.72 in 10.0 mi WSW 10.4 mph - N/A   Mostly Cloudy
1:15 PM 74.1 °F 61.7 °F 65% 29.71 in 10.0 mi West 8.1 mph 16.1 mph N/A   Mostly Cloudy
1:35 PM 74.7 °F 62.4 °F 66% 29.71 in 10.0 mi WNW 6.9 mph - N/A   Mostly Cloudy
1:55 PM 74.3 °F 59.9 °F 61% 29.72 in 10.0 mi WNW 6.9 mph - N/A   Scattered Clouds
2:15 PM 74.8 °F 59.5 °F 59% 29.72 in 10.0 mi Calm Calm - N/A   Mostly Cloudy
2:35 PM 76.5 °F 62.2 °F 61% 29.73 in 10.0 mi WSW 9.2 mph - N/A   Overcast
2:55 PM 75.7 °F 60.4 °F 59% 29.73 in 10.0 mi WSW 8.1 mph - N/A   Mostly Cloudy
3:15 PM 77.2 °F 60.8 °F 57% 29.73 in 10.0 mi SW 5.8 mph - N/A   Mostly Cloudy
3:35 PM 77.5 °F 60.4 °F 55% 29.73 in 10.0 mi SW 8.1 mph - N/A   Mostly Cloudy
3:55 PM 77.9 °F 60.3 °F 54% 29.73 in 10.0 mi WSW 3.5 mph - N/A   Scattered Clouds
4:15 PM 78.4 °F 61.0 °F 55% 29.73 in 10.0 mi WSW 8.1 mph - N/A   Scattered Clouds
4:35 PM 77.9 °F 60.1 °F 54% 29.73 in 10.0 mi SW 5.8 mph - N/A   Scattered Clouds
4:55 PM 78.6 °F 59.4 °F 51% 29.72 in 10.0 mi WNW 3.5 mph - N/A   Scattered Clouds
5:15 PM 78.8 °F 59.4 °F 51% 29.71 in 10.0 mi NW 4.6 mph - N/A   Clear
5:35 PM 79.2 °F 61.7 °F 55% 29.72 in 10.0 mi NW 8.1 mph - N/A   Clear
5:55 PM 78.1 °F 59.5 °F 53% 29.72 in 10.0 mi Calm Calm - N/A   Clear
6:15 PM 77.0 °F 59.9 °F 55% 29.73 in 10.0 mi SSE 3.5 mph - N/A   Clear
6:35 PM 77.0 °F 59.2 °F 54% 29.73 in 10.0 mi Calm Calm - N/A   Clear
6:55 PM 75.7 °F 63.1 °F 65% 29.71 in 10.0 mi NNE 3.5 mph - N/A   Clear
7:15 PM 74.3 °F 63.3 °F 68% 29.68 in 10.0 mi North 8.1 mph - N/A   Clear
7:35 PM 74.3 °F 62.4 °F 66% 29.70 in 10.0 mi East 4.6 mph - N/A   Clear
7:55 PM 72.7 °F 64.0 °F 74% 29.71 in 10.0 mi ESE 4.6 mph - N/A   Clear
8:15 PM 72.3 °F 64.6 °F 77% 29.69 in 10.0 mi Calm Calm - N/A   Clear
8:35 PM 72.9 °F 63.1 °F 71% 29.70 in 10.0 mi ENE 3.5 mph - N/A   Clear
8:55 PM 71.8 °F 64.4 °F 77% 29.72 in 10.0 mi SE 4.6 mph - N/A   Scattered Clouds
9:15 PM 70.9 °F 64.4 °F 80% 29.73 in 10.0 mi ESE 4.6 mph - N/A   Mostly Cloudy
9:35 PM 70.7 °F 64.0 °F 79% 29.74 in 10.0 mi East 4.6 mph - N/A   Scattered Clouds
9:55 PM 70.2 °F 63.7 °F 80% 29.75 in 10.0 mi ESE 6.9 mph - N/A   Scattered Clouds
10:15 PM 70.3 °F 63.0 °F 77% 29.75 in 10.0 mi ESE 9.2 mph - N/A   Clear
10:35 PM 70.2 °F 63.1 °F 78% 29.76 in 10.0 mi SE 8.1 mph - N/A   Clear
10:55 PM 69.1 °F 63.7 °F 83% 29.75 in 10.0 mi SE 8.1 mph - N/A   Clear
11:15 PM 68.7 °F 63.7 °F 84% 29.74 in 10.0 mi SE 5.8 mph - N/A   Clear
11:35 PM 68.0 °F 63.5 °F 85% 29.74 in 10.0 mi SE 6.9 mph - N/A   Clear
11:55 PM 68.2 °F 63.7 °F 85% 29.74 in 10.0 mi SSE 9.2 mph - N/A   Clear